GFSNIL_sfc_temp_000.txt.gz
Temp
61 59 58 56 54 53 52 53 54 54 54 53 51 50 49 47 47 46 45 46 46 43
58 57 56 55 54 54 54 56 52 51 51 51 50 48 46 44 44 43 43 43 42 41
57 58 57 56 54 53 52 52 51 50 49 49 48 48 47 43 44 44 42 43 43 41
56 56 56 54 52 51 50 50 49 49 48 48 47 44 43 42 43 43 41 42 43 43
56 56 54 52 51 50 49 49 49 48 47 46 45 43 41 41 42 42 41 42 42 43
55 53 51 51 50 50 48 48 47 47 45 45 45 44 43 43 43 41 40 41 41 42
52 51 50 50 49 48 48 47 46 46 46 45 45 46 43 42 39 38 39 39 39 39
53 52 51 49 48 48 47 47 46 45 44 44 44 40 36 37 36 35 35 36 38 39
54 51 49 48 47 46 46 45 44 43 43 41 45 35 34 33 31 34 33 32 34 37
47 46 47 48 48 46 43 43 41 41 41 40 38 35 34 33 32 31 31 32 33 35
48 47 48 47 46 45 43 41 40 40 40 38 39 37 36 33 29 30 30 31 31 32
47 48 47 45 44 43 41 40 40 40 37 35 35 37 35 32 28 28 28 30 31 32
49 47 45 44 43 42 41 41 39 36 35 36 33 36 35 32 26 25 27 29 30 32
46 47 46 44 43 41 40 37 33 32 32 33 33 32 34 32 27 26 25 26 27 29

GFSNIL_sfc_temp_003.txt.gz
Temp
52 50 50 53 52 51 48 48 49 47 47 47 47 45 43 42 42 43 40 40 41 40
54 54 52 54 51 47 48 52 47 46 45 45 45 44 44 41 40 40 39 39 39 40
54 54 52 48 47 46 46 47 46 45 44 44 44 43 41 39 38 38 37 40 38 38
54 51 49 47 46 46 45 45 45 45 44 43 42 41 39 38 38 38 38 38 38 39
50 51 47 46 46 45 45 45 44 43 42 42 41 39 38 37 38 37 36 36 36 36
51 48 46 46 45 45 44 43 43 42 41 41 40 39 38 37 36 35 35 34 34 35
47 48 45 46 45 45 45 43 42 42 42 41 40 38 37 36 33 32 33 33 33 34
47 46 44 43 45 45 44 42 42 41 40 39 39 38 32 32 30 30 30 31 33 34
44 43 43 45 43 43 42 41 40 39 38 36 39 34 34 31 28 30 29 28 30 31
44 43 43 43 43 43 41 38 37 36 36 35 31 34 34 34 29 28 27 27 28 30
43 42 43 43 43 41 40 37 35 34 34 33 35 35 36 33 27 27 28 29 30 29
42 42 42 41 41 40 37 34 34 34 32 31 31 36 34 31 26 27 27 30 30 30
41 41 40 40 39 36 36 36 33 32 32 33 29 34 34 31 24 22 24 26 28 30
41 40 40 39 38 36 33 31 28 29 29 30 30 29 31 31 24 24 24 24 25 27

GFSNIL_sfc_temp_006.txt.gz
Temp
50 51 52 52 48 48 47 46 45 44 44 44 44 42 41 39 39 39 38 36 37 37
53 53 52 52 49 48 45 47 44 44 43 43 43 42 40 38 37 36 36 36 36 36
53 52 49 46 44 44 44 45 44 43 42 42 41 40 39 37 37 36 35 37 35 35
48 48 46 44 46 44 44 45 46 44 43 42 40 39 37 36 36 36 35 35 34 34
47 47 45 44 43 43 44 43 44 44 42 40 39 37 36 35 36 34 33 33 32 32
47 45 44 43 43 43 42 44 44 43 41 39 39 38 36 35 34 32 32 31 31 31
45 45 42 41 41 43 43 43 42 41 41 40 39 37 35 34 31 31 31 32 31 30
42 41 42 43 42 42 42 43 42 41 39 37 37 36 32 32 31 30 30 30 30 30
43 43 41 41 40 39 39 41 41 39 36 35 38 35 35 33 29 30 29 27 28 28
42 41 40 40 39 39 38 41 37 35 34 32 31 35 35 34 30 28 26 26 27 28
41 39 39 39 38 38 40 37 34 31 32 31 33 35 35 33 28 26 27 27 27 27
40 39 38 38 37 37 36 33 32 32 31 29 29 34 34 31 25 25 25 28 28 28
39 38 38 36 35 34 34 33 33 30 29 31 27 32 32 30 21 19 23 25 27 28
39 37 37 35 34 34 32 31 27 27 27 28 28 27 31 31 23 22 23 23 24 25

GFSNIL_sfc_temp_009.txt.gz
Temp
50 49 51 52 50 47 44 44 43 42 43 44 43 41 39 38 37 36 34 34 34 34
49 49 48 47 45 43 42 45 42 45 44 44 42 41 39 37 36 35 34 34 33 33
47 47 46 45 43 42 43 46 46 44 42 43 43 42 38 36 36 35 34 34 33 33
45 45 44 43 42 42 42 44 44 43 43 43 41 39 38 36 36 35 34 32 32 32
44 44 42 42 41 43 43 41 40 41 42 41 40 38 37 36 35 33 32 31 31 31
41 41 40 40 42 43 41 41 41 41 39 38 38 38 36 34 33 31 31 31 30 30
40 41 40 39 40 40 40 39 38 39 38 38 38 37 35 33 31 31 32 31 30 29
40 40 40 39 39 39 39 40 38 37 38 38 36 35 32 32 31 30 29 30 30 30
41 41 40 39 38 40 39 38 37 39 36 33 36 36 36 33 29 30 29 27 29 29
40 39 38 38 38 37 36 36 36 34 32 32 32 35 36 35 31 29 26 26 27 28
38 38 37 37 36 35 36 34 32 31 31 31 32 35 34 32 30 26 26 26 26 26
38 37 36 35 34 34 33 31 30 31 31 29 29 34 33 30 24 24 24 27 27 27
37 36 35 34 32 32 31 31 31 31 29 31 27 32 32 30 21 17 22 24 25 27
36 35 34 33 33 32 31 30 27 28 26 27 27 26 31 30 20 20 23 23 23 25

GFSNIL_sfc_temp_012.txt.gz
Temp
47 46 46 45 45 44 42 42 41 41 41 41 43 43 42 41 37 37 36 35 34 33
46 45 44 44 43 42 42 43 41 41 42 41 43 41 39 36 37 37 36 34 34 33
44 44 43 41 41 41 40 42 44 43 42 42 41 41 40 38 36 35 34 34 33 32
43 42 41 40 40 39 40 42 42 42 40 39 40 38 36 35 34 34 33 33 32 32
41 41 40 39 39 39 40 40 40 39 41 40 37 36 34 34 34 33 32 32 31 31
40 39 39 39 39 39 38 38 39 41 40 37 36 36 36 33 33 32 32 31 30 30
39 39 38 38 37 37 38 39 41 38 37 36 37 36 34 33 32 31 31 31 30 29
39 39 38 38 37 37 37 41 40 36 37 36 36 36 32 33 31 30 29 30 30 30
39 39 38 37 37 37 36 36 35 35 34 33 35 36 36 34 30 30 29 28 28 28
38 37 37 36 36 35 34 34 36 33 32 30 31 36 36 33 30 28 27 26 26 27
37 36 36 35 34 34 34 33 32 30 30 30 32 34 34 32 27 26 26 26 26 25
36 35 34 33 32 31 31 31 31 31 30 29 29 33 33 30 25 25 25 27 27 27
36 34 33 32 31 31 31 32 31 30 29 31 27 31 32 30 21 18 22 24 26 27
35 33 33 31 30 30 29 29 26 27 27 28 27 26 30 31 20 21 23 23 23 25

GFSNIL_sfc_temp_018.txt.gz
Temp
64 63 65 63 62 61 61 61 61 60 60 60 58 55 53 55 56 54 53 52 52 52
61 62 61 60 61 60 60 60 59 59 58 57 55 55 53 55 54 54 53 52 52 52
62 62 61 60 59 58 58 58 58 57 57 55 55 55 53 55 52 53 53 53 51 51
61 61 60 59 58 58 57 57 56 56 56 55 53 52 53 52 50 51 51 51 49 49
61 61 59 58 57 57 56 56 55 54 54 54 53 53 50 50 52 51 50 49 49 48
60 59 57 57 57 56 55 55 54 54 53 53 50 49 50 51 50 50 49 48 47 46
58 58 57 56 56 55 54 53 53 53 53 51 51 51 51 50 49 48 48 46 46 45
58 57 57 55 55 54 53 53 53 52 52 50 49 48 46 48 47 46 46 45 45 44
57 56 55 54 53 52 52 52 52 51 50 48 49 36 37 38 46 45 44 42 43 42
55 53 53 53 53 52 51 51 50 50 49 47 47 36 35 34 44 43 42 41 40 40
53 52 53 53 51 51 51 49 49 49 48 47 44 35 34 33 43 42 41 40 39 39
51 51 51 50 50 50 49 49 49 48 46 45 44 34 33 34 40 39 38 39 39 37
51 50 49 49 49 49 49 48 48 46 45 38 42 33 33 34 39 35 36 38 38 34
50 49 48 48 49 48 48 46 44 41 42 42 40 39 32 32 35 35 34 35 36 36

GFSNIL_sfc_temp_021.txt.gz
Temp
64 62 64 64 63 63 62 62 62 61 61 60 61 60 55 55 53 54 53 53 53 52
59 63 64 63 63 62 61 62 61 60 59 60 59 58 54 53 53 54 53 51 51 51
62 64 64 63 61 60 60 60 59 58 58 58 58 55 56 55 55 52 51 51 51 51
63 63 63 62 61 60 59 59 58 58 57 56 57 57 55 53 52 51 50 51 51 50
63 64 62 61 61 60 58 58 57 57 56 57 57 55 53 51 51 50 50 50 49 48
63 63 61 60 60 59 58 57 57 56 55 55 53 50 53 52 51 51 50 48 48 47
62 62 61 60 59 58 57 55 55 55 55 54 53 52 51 50 50 49 49 47 47 46
62 61 60 59 58 57 56 55 56 55 54 54 52 50 49 49 48 47 46 47 47 47
61 60 59 58 56 56 55 55 54 53 53 52 51 36 37 39 46 46 45 44 45 45
59 58 57 57 56 55 54 54 52 52 51 49 47 37 36 35 43 45 44 44 43 42
57 56 56 55 55 54 54 52 51 50 50 49 44 36 35 35 41 44 43 42 42 41
56 54 53 53 53 53 52 51 50 51 49 47 44 35 35 34 41 41 40 41 41 40
54 53 52 52 51 52 51 50 51 50 49 40 44 35 34 35 39 38 38 40 40 35
53 53 52 50 50 50 49 49 46 44 45 45 43 40 34 34 36 37 36 36 37 38

GFSNIL_sfc_temp_024.txt.gz
Temp
59 57 56 58 57 55 54 53 54 53 53 52 53 52 51 48 47 46 45 45 44 44
57 56 56 58 57 54 54 56 53 52 51 51 51 51 49 47 46 46 44 43 45 42
57 58 58 57 55 54 53 53 52 52 51 51 50 49 49 47 47 45 43 45 44 42
57 58 58 56 55 54 53 53 52 52 51 50 50 49 48 46 46 45 43 43 42 43
58 58 56 56 56 54 53 53 52 52 51 51 50 48 46 45 46 44 43 43 42 42
58 57 57 56 55 55 53 52 51 51 49 49 49 48 47 46 44 43 43 42 41 41
57 56 56 55 54 53 53 51 50 50 49 49 49 49 48 47 43 42 43 42 41 41
58 58 56 55 54 53 51 51 50 49 48 48 48 46 43 43 41 40 40 40 42 40
58 57 55 54 52 51 50 50 49 48 47 46 47 38 38 38 37 39 39 36 37 38
57 55 53 53 53 51 49 49 48 47 47 45 38 37 37 36 37 36 36 35 35 37
55 54 52 50 50 49 48 47 46 44 45 45 40 37 36 35 33 35 36 35 35 33
53 51 50 49 47 47 46 45 44 46 45 43 36 36 36 35 32 33 34 36 35 35
51 49 47 47 46 46 45 46 45 44 42 40 34 35 35 34 29 30 30 32 33 33
48 48 48 46 45 44 44 43 39 38 38 38 36 33 35 35 30 28 29 29 28 29

GFSNIL_sfc_temp_027.txt.gz
Temp
53 50 51 51 51 51 51 49 49 50 48 48 48 46 46 45 44 43 41 41 41 40
52 52 51 52 52 51 50 53 49 49 47 47 47 46 45 43 43 42 41 42 44 42
52 52 52 52 52 50 49 50 49 48 47 46 46 46 44 43 43 41 40 42 40 41
51 52 53 52 52 52 51 50 48 48 47 47 46 45 43 42 43 42 41 42 40 39
52 55 55 54 53 51 49 49 48 48 48 47 46 45 43 42 42 41 41 41 39 39
55 55 54 53 52 51 48 48 48 48 46 46 45 44 44 44 42 41 41 39 38 37
54 54 54 53 51 49 50 47 47 46 46 45 46 46 46 43 41 41 41 40 39 37
54 54 53 52 51 50 49 48 49 48 46 46 44 45 41 41 39 38 37 37 38 36
54 53 51 50 50 49 46 47 47 46 45 43 45 38 39 38 37 37 35 34 33 34
51 51 48 48 48 47 46 46 46 45 44 43 39 38 38 37 35 35 33 31 32 34
47 48 48 48 46 45 45 44 43 43 43 41 39 37 37 36 32 32 33 32 32 31
47 47 45 44 43 43 43 42 42 43 42 39 35 37 36 34 30 31 31 33 32 32
45 44 43 42 42 42 43 43 42 41 40 38 34 36 36 34 26 29 28 29 30 33
45 43 43 43 43 41 39 37 35 34 35 35 32 32 36 36 29 27 27 27 26 27

GFSNIL_sfc_temp_030.txt.gz
Temp
53 52 50 50 52 51 50 49 49 49 47 46 46 44 43 42 42 41 39 40 39 39
52 52 51 52 51 50 49 51 49 47 45 48 47 44 43 41 41 40 40 40 39 40
53 52 51 51 51 51 51 51 50 49 48 46 45 44 43 41 41 40 39 40 39 39
52 51 52 52 51 51 51 51 49 47 48 46 45 44 41 41 41 41 40 39 38 39
50 52 53 52 52 49 50 49 47 46 46 46 46 44 42 40 42 42 40 40 39 39
51 52 52 52 49 48 46 46 45 45 45 45 45 45 44 42 41 39 40 40 37 37
53 53 50 50 47 46 46 47 45 45 45 45 44 45 45 42 40 39 39 39 38 37
53 52 50 46 46 46 46 46 46 44 45 44 44 43 42 41 38 36 36 36 37 35
52 50 48 47 46 45 46 47 46 44 43 41 43 40 40 38 35 37 35 33 32 33
49 47 46 47 46 45 44 44 44 42 42 42 40 38 39 38 35 34 32 31 31 33
46 45 45 44 43 42 42 42 41 41 41 40 40 38 38 37 32 32 32 31 31 30
43 43 42 41 40 41 41 40 40 41 40 39 36 37 37 35 30 31 31 33 32 31
42 41 40 40 40 41 41 40 38 37 37 37 34 36 37 35 27 29 28 29 30 34
41 41 42 41 40 38 36 35 32 32 32 32 33 32 37 36 29 29 28 28 27 27

GFSNIL_sfc_temp_033.txt.gz
Temp
51 50 52 52 51 51 50 49 49 49 49 49 49 47 42 41 41 40 39 39 39 38
51 51 52 52 52 50 49 50 49 48 48 48 47 44 42 40 40 39 39 39 38 39
54 54 53 52 50 50 50 50 49 48 48 47 46 44 41 40 41 41 38 38 38 37
49 49 50 52 52 52 51 50 50 49 47 45 44 44 42 41 40 39 38 37 37 37
49 50 52 52 51 50 50 49 48 46 45 44 44 44 41 39 40 39 37 38 38 38
50 52 52 51 50 48 45 45 45 44 43 44 44 44 42 40 39 37 37 37 37 36
51 52 52 52 49 48 46 45 45 45 45 44 43 42 42 41 38 37 37 37 36 36
52 52 51 48 47 46 46 46 46 46 45 44 43 43 40 39 37 36 35 35 35 34
50 47 46 46 45 45 44 45 45 44 43 42 43 41 40 38 35 35 33 32 32 33
46 45 45 45 44 43 42 42 41 41 42 41 40 40 39 38 34 33 32 31 31 32
44 44 44 43 42 40 40 40 40 40 40 39 39 39 38 37 33 31 31 31 31 30
43 42 41 40 39 39 39 39 39 39 36 35 34 37 37 35 30 30 31 32 31 31
42 41 39 39 39 39 40 39 37 35 34 34 32 36 37 36 28 29 29 29 30 34
41 40 40 40 40 38 36 34 31 31 31 32 32 32 36 37 31 30 30 29 28 29

GFSNIL_sfc_temp_036.txt.gz
Temp
56 54 53 50 47 47 47 47 50 48 48 46 48 47 46 43 41 40 39 38 38 38
53 52 51 49 49 48 49 49 46 47 47 48 47 46 45 43 41 40 39 38 38 37
51 52 51 50 48 48 47 49 48 48 48 47 47 46 44 42 41 39 38 38 37 37
48 50 50 50 49 50 49 50 49 48 47 46 46 44 41 41 40 39 38 38 37 37
49 49 49 50 51 49 50 49 49 47 46 46 45 43 41 40 41 39 37 37 36 37
48 49 49 50 51 49 48 46 45 46 46 45 44 43 43 40 40 38 37 37 36 36
48 51 50 48 47 46 47 46 44 46 45 44 44 44 43 41 39 37 37 36 36 35
49 47 46 46 46 45 45 45 46 45 44 43 43 43 41 40 38 36 35 35 35 34
46 45 45 45 44 44 44 43 43 42 41 40 43 41 40 38 35 34 34 33 33 33
44 44 43 43 44 43 41 41 40 39 40 40 41 40 40 39 34 33 33 32 32 32
44 43 43 42 41 40 40 39 39 39 40 39 39 38 38 37 34 32 32 32 32 31
43 42 41 40 39 39 39 39 39 39 38 35 34 37 37 36 31 31 31 33 33 32
42 41 40 39 39 39 39 39 38 36 34 35 32 35 37 36 28 29 32 32 33 35
41 41 41 40 39 37 35 34 32 32 32 31 32 32 36 37 30 30 31 32 32 32

GFSNIL_sfc_temp_039.txt.gz
Temp
62 60 61 58 54 53 56 54 55 55 56 55 54 53 48 49 52 53 53 52 52 53
61 60 59 56 54 55 54 55 54 55 55 54 49 51 51 52 53 52 52 52 51 51
61 62 59 54 54 55 54 54 54 54 53 52 54 47 53 53 53 51 52 52 51 50
59 59 56 54 55 53 53 55 55 53 50 49 54 54 53 51 51 50 51 50 49 49
58 55 54 53 53 53 54 55 55 52 49 49 53 53 51 50 48 49 49 49 49 48
55 55 55 54 55 55 55 55 50 49 48 52 53 52 49 45 49 49 49 49 48 48
55 55 55 54 53 51 51 49 51 49 48 50 49 49 46 47 48 48 48 48 47 48
55 55 54 52 48 47 47 48 48 48 47 45 45 44 44 47 48 47 47 47 47 47
51 50 48 46 45 44 45 46 46 43 43 42 44 40 40 42 46 47 45 46 47 47
48 46 45 45 45 42 43 44 42 42 43 43 43 40 40 39 45 46 46 46 46 46
48 45 45 44 44 42 42 42 43 45 43 42 42 39 38 37 45 45 45 45 46 45
46 46 46 42 42 45 44 45 42 41 40 43 44 38 37 38 43 43 43 44 44 44
49 48 46 45 43 42 41 41 44 44 44 41 43 39 37 39 42 40 40 42 42 37
44 42 42 43 45 45 44 43 42 41 42 42 42 42 37 37 40 40 39 40 40 41

GFSNIL_sfc_temp_042.txt.gz
Temp
67 64 64 68 67 65 60 60 59 60 62 62 62 59 55 52 51 58 57 59 59 61
66 65 65 67 68 63 59 58 58 59 59 59 57 54 51 53 54 58 59 58 58 58
67 66 66 65 64 60 60 60 59 60 59 57 55 53 48 49 58 58 59 57 57 57
67 67 65 64 64 62 61 57 56 57 58 54 52 52 52 55 56 55 51 56 55 54
66 64 61 60 60 59 57 55 57 60 56 54 57 55 52 52 54 50 52 55 56 54
64 59 57 56 55 54 54 55 57 56 53 54 54 52 51 49 47 48 53 54 55 55
64 63 63 60 58 56 55 56 50 50 51 50 51 51 49 47 46 47 50 52 53 54
63 63 62 60 60 59 59 55 50 50 46 49 49 47 49 49 44 46 51 53 54 54
61 59 57 55 54 49 48 48 46 47 45 46 51 41 40 40 42 47 50 51 53 54
57 54 52 50 49 45 49 44 45 46 52 48 48 40 40 39 46 50 51 52 52 52
55 52 52 51 50 47 47 46 48 49 47 50 49 39 39 38 47 49 51 51 51 50
55 54 53 52 51 52 52 50 50 46 43 41 43 40 39 39 48 48 49 50 51 50
55 54 52 51 47 43 43 44 46 49 51 47 49 43 39 40 46 45 46 48 49 41
47 45 47 51 52 53 52 51 49 47 49 49 48 48 40 39 43 44 44 45 46 48

GFSNIL_sfc_temp_045.txt.gz
Temp
71 68 67 64 63 63 63 63 66 63 60 60 61 59 56 57 55 51 53 54 60 61
70 69 68 66 66 63 62 65 62 58 57 58 57 58 58 55 52 56 55 53 56 56
70 69 69 67 65 63 65 63 59 58 58 59 60 58 55 55 56 53 54 53 52 55
72 70 67 65 64 64 62 60 60 60 58 56 56 54 53 52 53 54 51 50 49 53
71 71 64 63 62 62 61 62 62 58 55 55 55 52 50 52 53 53 48 47 49 51
65 62 61 60 59 58 58 58 56 55 56 53 52 52 50 50 47 46 48 48 49 51
64 62 61 59 57 55 54 54 55 54 50 52 50 50 49 46 46 49 50 47 50 52
66 66 64 62 60 58 57 55 52 51 52 49 47 47 46 49 52 49 47 46 49 53
65 64 62 61 59 58 57 55 52 47 47 46 50 44 42 44 49 46 45 44 50 54
61 59 57 57 56 54 53 53 49 49 50 50 53 41 40 39 44 43 44 49 51 53
58 56 57 56 55 54 53 52 51 52 53 52 48 40 40 38 44 48 50 51 52 52
59 57 57 55 53 53 52 52 50 47 48 47 50 41 39 40 48 48 48 51 51 51
59 57 54 52 51 50 50 51 52 52 53 48 52 42 39 42 46 44 45 47 49 44
55 53 53 54 55 55 54 54 51 49 51 51 49 49 39 38 42 40 38 39 41 44

GFSNIL_sfc_temp_048.txt.gz
Temp
70 67 66 66 62 61 61 61 61 60 60 57 58 56 54 52 51 49 48 49 52 52
66 66 65 63 63 61 61 61 60 59 56 56 55 54 52 50 48 48 49 51 50 49
66 65 66 65 63 63 61 60 58 56 56 55 54 54 50 48 48 50 50 50 49 49
67 67 66 63 63 63 60 58 56 56 55 55 54 52 49 49 50 50 47 47 46 46
68 67 62 61 60 59 57 57 57 56 55 54 52 51 49 48 50 48 45 45 45 47
65 62 60 58 57 57 56 56 55 54 53 52 50 49 48 48 47 45 45 45 46 46
59 58 57 55 53 52 52 51 51 51 50 49 48 47 48 46 45 45 45 47 46 46
59 59 57 56 55 53 53 52 50 48 48 47 47 47 46 47 45 45 45 45 47 46
61 60 58 56 55 54 52 50 49 48 45 43 48 42 43 44 46 46 44 42 45 45
59 56 54 54 53 51 48 48 45 45 45 46 47 42 41 40 43 43 43 42 42 45
56 54 54 53 51 48 48 46 46 46 48 48 45 40 40 39 41 41 41 42 43 42
56 54 53 51 49 50 50 49 47 46 45 44 45 40 39 39 40 41 40 44 42 42
57 54 52 50 49 47 47 47 48 48 47 44 44 39 38 39 36 34 32 35 39 38
54 51 51 50 49 49 48 47 43 43 43 45 40 37 36 36 32 29 30 30 31 32

GFSNIL_sfc_temp_051.txt.gz
Temp
67 64 63 62 59 61 61 60 60 59 59 58 57 56 54 52 51 50 49 47 48 49
66 66 64 60 60 60 58 57 57 58 56 57 55 54 52 51 49 49 47 46 47 48
68 61 61 60 58 59 58 57 56 56 55 55 54 52 51 49 48 48 47 48 47 47
64 60 61 60 60 59 58 56 55 54 54 53 52 51 49 49 48 48 46 46 46 46
62 61 60 59 59 59 57 55 54 54 54 53 52 50 49 47 49 47 45 45 46 47
61 62 60 58 57 56 54 55 54 54 53 51 50 49 49 48 46 45 45 46 45 46
58 56 56 55 54 53 54 53 52 52 51 50 49 48 47 46 45 45 45 45 45 45
55 55 55 53 52 52 51 51 50 49 47 47 47 47 45 46 45 44 44 45 45 44
57 56 54 53 51 51 49 48 47 46 45 45 47 41 42 44 43 45 44 41 44 44
55 53 53 53 51 48 44 42 41 41 42 42 43 41 41 40 42 42 42 41 41 40
52 50 50 49 47 43 42 41 41 41 42 42 43 40 40 39 41 38 38 38 38 36
50 49 47 45 44 43 43 42 41 42 41 42 43 40 39 38 37 37 34 37 36 36
51 49 46 45 44 43 45 45 43 43 42 39 36 37 38 36 30 29 28 31 34 35
48 46 46 46 44 43 42 41 38 37 37 36 35 34 36 35 29 27 27 28 28 28

GFSNIL_sfc_temp_054.txt.gz
Temp
63 63 63 63 60 59 61 61 59 59 58 58 58 56 55 53 52 51 50 50 49 49
63 63 63 63 60 60 60 58 58 58 57 56 56 54 53 51 50 51 49 48 48 48
64 64 65 60 60 59 58 56 56 56 56 54 53 52 52 50 50 49 47 47 47 47
64 64 60 60 60 59 59 57 56 56 54 52 50 49 51 50 49 48 46 46 46 46
64 61 60 59 59 60 58 57 56 54 53 52 50 49 49 48 49 47 45 45 46 46
61 61 60 60 60 58 56 55 54 53 52 51 50 49 49 48 47 46 46 46 45 46
60 60 62 61 58 57 56 54 53 53 52 50 49 48 48 47 46 46 46 46 45 45
60 60 59 60 56 54 54 53 51 49 48 48 47 47 46 46 45 45 44 44 45 45
56 55 55 53 52 51 50 50 48 47 46 45 46 41 42 44 44 44 44 42 43 43
55 53 52 52 50 48 47 47 44 44 45 45 45 40 41 40 43 42 41 40 42 41
53 52 51 50 47 45 46 44 43 43 44 43 42 40 40 38 38 37 37 36 35 34
51 49 49 47 46 43 41 40 40 40 39 39 39 39 38 38 37 34 33 35 34 33
49 48 45 44 42 40 41 41 41 40 40 39 39 37 37 35 31 29 28 30 31 33
46 44 44 43 43 43 42 41 36 34 34 33 34 35 36 35 29 28 28 28 28 29

GFSNIL_sfc_temp_057.txt.gz
Temp
59 59 58 58 58 56 57 58 58 58 59 60 57 56 56 56 55 53 52 51 51 50
59 60 59 59 59 59 57 58 57 59 59 57 56 56 54 52 51 51 51 50 50 49
60 60 62 61 60 59 59 58 56 56 56 55 55 54 52 49 49 50 49 49 48 47
61 61 61 60 61 59 58 59 58 57 56 55 53 51 49 48 49 49 48 47 47 46
62 62 61 61 61 60 59 59 59 59 56 54 53 52 51 49 50 48 47 46 46 46
62 61 61 61 60 61 61 59 57 56 54 53 52 51 51 50 49 48 47 47 46 46
62 61 61 61 61 61 62 58 55 54 53 52 51 51 50 49 47 46 47 46 46 46
62 60 61 60 61 60 57 56 54 53 51 50 49 48 47 47 46 45 44 45 45 45
60 59 59 60 57 55 53 53 51 49 48 47 47 42 42 45 45 45 44 43 43 44
58 58 57 54 52 51 51 49 47 47 46 46 46 40 41 41 44 43 42 42 41 41
56 54 52 51 49 47 47 46 46 45 46 45 43 39 39 39 42 40 38 38 38 36
53 51 50 48 47 46 45 45 44 44 43 42 40 38 38 38 37 35 34 33 32 31
51 50 48 46 45 44 45 43 42 40 41 38 38 37 38 36 32 30 29 30 31 33
49 48 47 45 44 44 43 38 34 31 32 34 35 36 36 36 33 29 28 28 28 28

GFSNIL_sfc_temp_060.txt.gz
Temp
56 56 56 54 52 52 53 54 55 56 57 57 57 58 58 58 57 56 55 54 53 53
55 56 56 54 53 55 54 55 55 56 56 56 56 56 57 56 55 53 52 51 51 52
56 56 57 56 56 57 58 55 55 55 56 56 55 55 54 52 50 51 48 50 50 49
56 56 56 57 58 57 58 58 58 58 57 57 55 55 54 52 50 50 49 47 48 47
58 58 57 57 58 57 58 59 59 60 59 58 56 53 52 51 51 50 48 48 48 47
57 58 57 58 58 58 59 60 58 58 58 57 55 54 53 52 51 50 49 48 48 47
58 58 59 59 59 59 59 60 60 58 59 57 53 52 52 50 49 49 49 48 48 47
59 60 60 59 59 59 59 60 61 59 55 53 51 50 49 49 48 47 46 46 46 46
60 60 60 59 58 58 59 59 59 55 54 50 50 43 43 46 46 46 45 43 43 43
60 59 59 59 58 58 58 55 53 51 50 49 47 41 42 41 46 44 43 43 41 40
59 58 58 57 55 53 52 52 49 49 48 47 43 40 39 39 42 41 41 41 39 36
57 57 53 52 48 47 48 47 45 45 44 43 40 39 38 39 38 36 34 35 35 34
53 51 50 48 47 46 46 43 42 41 42 40 39 37 38 38 35 32 31 32 33 33
50 49 47 45 44 43 41 38 35 34 34 35 37 36 37 37 35 32 31 30 29 30

GFSNIL_sfc_temp_063.txt.gz
Temp
64 64 64 63 64 64 65 67 66 66 66 67 67 66 66 65 65 63 57 56 57 58
63 64 64 64 64 64 64 64 65 66 66 67 66 66 66 65 64 61 59 60 61 60
62 63 64 64 63 64 65 64 65 65 66 66 66 66 65 64 62 60 59 59 58 57
62 62 62 62 63 64 64 65 65 66 66 66 66 64 62 59 58 57 58 55 54 55
61 61 60 60 62 63 64 65 65 65 64 60 60 60 57 57 55 53 53 52 51 53
61 61 60 61 62 63 63 64 65 65 64 64 62 60 58 57 55 54 55 52 51 52
61 61 62 63 62 63 63 63 64 65 64 63 63 60 57 55 53 52 52 52 51 51
63 63 63 63 63 63 63 64 63 63 64 64 62 59 57 56 55 53 50 49 49 48
64 64 63 63 63 63 63 64 64 62 62 59 56 47 47 51 52 50 48 46 46 46
64 63 63 64 64 63 62 62 61 60 59 57 55 44 45 44 49 48 46 45 43 41
64 63 64 64 63 63 61 59 58 57 54 54 50 43 41 40 46 44 44 43 41 37
64 63 63 62 62 55 53 50 49 48 48 46 42 39 39 41 40 37 36 37 37 36
63 61 56 52 49 47 48 44 43 42 44 40 39 37 38 39 37 33 32 33 33 34
57 53 51 48 46 44 41 39 36 35 36 38 38 37 37 37 36 33 32 31 30 32

GFSNIL_sfc_temp_069.txt.gz
Temp
68 68 68 70 70 66 65 63 67 67 66 70 69 70 70 70 68 70 65 67 68 70
68 67 68 68 68 69 70 67 66 67 69 71 71 71 72 72 70 67 66 68 68 69
67 69 70 70 69 69 69 69 69 68 69 69 68 70 70 71 72 70 70 70 69 69
69 69 70 71 72 72 71 71 70 70 70 70 70 71 71 71 72 71 70 70 70 68
71 71 71 71 73 74 73 74 73 74 73 73 73 73 72 71 73 71 70 70 70 66
72 72 72 72 73 74 73 74 74 75 73 74 73 73 73 73 72 71 71 70 70 65
73 73 73 73 73 73 73 73 73 73 73 73 73 74 73 73 71 71 71 70 69 64
74 74 73 73 73 72 72 73 73 73 72 73 73 73 72 73 71 70 68 67 65 61
75 75 73 73 72 72 71 72 72 71 71 70 72 58 51 60 70 68 68 64 62 62
76 75 73 73 72 71 70 70 70 70 70 70 70 52 49 47 66 66 62 58 61 57
76 75 75 73 72 71 71 69 68 69 70 70 70 50 46 43 63 66 65 64 60 53
78 76 75 73 71 72 71 70 69 69 68 67 68 44 42 44 54 46 40 41 41 41
79 77 75 74 72 71 71 69 67 55 49 42 50 41 42 44 41 36 34 34 35 35
78 77 76 75 74 72 63 49 42 39 38 38 38 39 39 39 37 34 33 32 32 32

GFSNIL_sfc_temp_072.txt.gz
Temp
65 64 65 63 64 64 63 63 64 64 64 64 64 63 62 61 61 60 60 59 61 63
65 65 64 64 65 66 65 65 64 64 64 64 64 64 63 62 62 63 62 61 61 62
65 65 65 65 65 65 66 65 64 64 64 64 64 65 65 64 65 63 63 63 61 62
63 65 65 66 66 66 65 66 65 64 64 64 64 65 65 65 65 63 64 63 62 62
63 64 64 65 65 65 65 66 66 66 65 65 65 65 64 63 65 64 63 64 62 62
64 64 64 64 66 66 66 66 66 66 66 66 65 65 65 65 64 64 64 64 63 63
66 65 66 66 66 66 68 67 67 67 66 66 66 67 66 66 65 65 65 65 64 64
69 69 68 67 67 67 67 68 68 67 67 67 68 69 67 68 66 65 66 65 65 65
71 70 68 68 68 67 67 67 67 67 67 66 68 58 52 59 66 66 65 64 64 64
72 70 69 69 68 67 66 66 65 66 66 66 66 52 49 48 64 64 63 62 62 61
72 71 71 69 68 67 66 65 65 64 65 65 66 50 48 45 57 61 62 61 60 55
73 72 70 69 68 67 66 65 64 65 63 63 63 48 46 45 54 57 43 40 40 43
73 72 71 69 68 67 67 65 65 60 47 40 48 39 41 44 43 37 34 34 35 35
54 55 60 67 66 65 63 47 41 37 36 37 38 38 39 40 38 35 32 32 32 33

GFSNIL_sfc_temp_075.txt.gz
Temp
63 61 60 60 60 61 61 61 62 62 62 61 60 63 60 59 60 60 58 58 59 60
62 63 62 62 62 61 62 63 62 61 62 62 62 61 60 61 60 61 60 60 59 59
63 63 64 63 62 62 64 63 62 62 62 62 62 62 61 60 60 59 60 61 59 59
63 63 64 63 62 62 63 63 62 63 62 63 62 63 62 62 61 60 61 61 60 60
62 63 63 63 63 62 62 64 62 62 62 62 62 62 61 62 64 61 61 61 60 60
59 62 63 63 64 63 63 62 63 63 61 62 62 62 62 62 62 62 61 61 59 59
59 60 62 64 63 64 62 63 62 63 62 61 62 62 63 63 62 62 62 61 60 61
61 61 61 61 62 62 62 63 63 63 63 63 63 63 62 63 62 61 60 61 62 62
64 62 61 61 62 62 62 63 63 62 62 62 63 55 50 57 62 62 61 60 61 62
65 64 63 63 63 62 62 62 62 62 63 62 63 50 48 47 62 61 61 61 61 60
62 65 65 64 64 63 63 62 62 62 62 63 64 49 47 45 56 61 61 61 60 59
54 55 63 62 63 64 63 62 62 63 61 60 62 47 47 46 56 57 58 43 42 46
47 48 48 51 53 59 61 62 61 58 49 40 51 39 41 42 51 46 37 35 35 36
42 43 42 45 46 45 50 50 45 42 37 37 37 38 39 40 41 41 34 33 32 34

GFSNIL_sfc_temp_078.txt.gz
Temp
61 60 59 60 59 60 61 61 62 62 61 61 60 60 60 59 58 58 58 56 57 58
61 61 58 60 60 59 60 62 60 61 62 61 61 62 59 59 58 58 58 58 58 58
62 62 60 59 58 60 60 61 61 60 59 60 61 61 61 60 59 59 59 60 58 59
62 62 62 60 59 60 60 60 60 61 60 61 61 61 60 61 61 60 60 60 58 58
62 62 61 62 61 61 60 61 61 61 61 61 62 62 61 61 61 58 59 59 58 58
59 61 61 62 62 62 61 60 61 61 60 61 61 61 60 60 60 60 59 60 58 59
58 59 60 62 62 62 62 62 61 61 61 61 62 61 61 60 59 59 60 60 60 59
59 60 60 61 61 63 62 62 62 61 61 61 61 61 60 61 60 59 59 60 60 60
59 59 58 59 60 61 61 62 62 61 61 59 61 52 49 55 59 60 59 58 59 60
60 59 59 59 59 59 59 60 59 60 60 60 60 49 47 46 59 59 58 58 58 58
51 53 55 60 59 58 59 58 58 59 60 60 61 47 46 45 56 60 60 60 60 59
49 49 50 50 50 56 59 59 59 60 59 59 60 44 45 45 56 58 58 60 60 57
44 45 44 45 45 46 48 53 57 47 39 36 39 36 37 40 51 54 53 41 37 36
38 40 40 41 42 42 44 41 38 35 34 34 34 34 36 36 38 42 34 33 32 33

GFSNIL_sfc_temp_081.txt.gz
Temp
61 61 59 57 59 59 60 60 62 60 61 61 61 61 59 58 58 58 57 57 57 59
58 59 58 59 60 60 60 60 62 61 60 60 60 61 60 59 59 59 59 58 57 59
58 58 59 56 57 56 56 58 57 59 59 60 60 60 60 60 60 59 60 59 56 57
60 60 60 57 55 56 56 57 57 58 59 59 60 61 60 61 60 59 60 58 57 57
61 61 60 58 56 55 56 56 57 58 59 60 59 59 60 59 60 57 58 58 58 58
59 60 60 60 60 59 57 57 57 58 58 58 58 58 58 59 60 59 59 59 58 59
56 57 58 61 61 61 61 60 58 58 59 59 59 59 59 59 58 59 58 58 59 58
56 57 57 57 58 59 61 61 61 60 60 59 59 60 59 60 59 58 57 57 57 58
57 57 57 57 57 57 57 58 59 60 60 59 60 51 47 53 59 58 57 57 57 58
56 57 56 57 57 57 56 57 57 58 59 59 60 48 47 46 58 58 57 57 57 57
50 51 53 54 57 57 57 57 57 58 59 59 59 43 44 44 54 58 58 58 58 57
45 45 46 46 47 49 50 54 57 58 58 54 44 37 37 39 51 55 57 58 58 49
41 40 39 41 41 43 46 44 42 36 35 35 35 35 36 38 42 48 50 39 36 35
36 37 37 37 39 39 39 37 34 32 32 32 33 34 36 37 36 34 34 33 32 32

GFSNIL_sfc_temp_084.txt.gz
Temp
60 59 59 59 59 58 59 59 59 59 60 60 59 59 60 60 59 57 57 56 56 56
59 59 58 58 59 59 59 59 59 59 59 59 60 60 58 59 59 58 57 57 57 56
58 59 60 59 55 56 58 60 59 59 59 59 60 60 60 59 59 59 58 58 56 56
58 57 56 55 54 55 55 57 59 59 59 59 59 59 59 59 59 58 58 58 57 57
58 58 58 58 56 54 55 55 56 58 59 59 59 59 59 58 59 57 57 58 58 58
58 58 57 56 56 54 54 55 55 56 57 57 58 58 59 59 58 57 57 58 59 58
55 57 58 59 57 56 56 54 54 56 56 56 56 57 58 58 58 58 58 59 59 59
54 55 55 55 56 57 57 57 56 56 56 56 56 57 56 57 56 56 56 56 56 57
55 55 54 54 55 55 55 55 55 55 57 57 58 50 47 53 58 58 58 57 57 57
54 56 55 56 56 56 56 56 55 56 57 57 57 45 46 45 58 59 58 58 57 57
47 48 49 50 49 52 55 56 56 56 57 58 41 37 37 37 49 57 58 58 58 57
42 43 43 42 43 45 48 46 40 39 41 40 37 36 36 37 45 50 53 53 38 38
39 39 38 39 39 41 40 37 37 34 34 34 34 35 36 37 41 41 37 34 34 34
36 36 36 37 37 37 36 35 33 31 31 32 32 33 35 36 35 34 33 32 31 32

GFSNIL_sfc_temp_087.txt.gz
Temp
62 61 61 60 59 59 58 58 59 59 59 59 60 59 59 61 62 61 62 62 64 65
62 61 60 61 60 59 60 59 58 58 58 58 58 60 60 59 60 60 62 63 63 64
60 61 61 60 59 59 59 60 59 59 59 58 58 59 60 60 61 62 61 60 59 59
60 60 61 61 62 60 59 59 59 59 59 59 59 59 59 59 60 59 59 59 58 57
60 59 59 60 61 61 63 64 62 60 59 58 58 59 59 59 61 59 59 59 59 59
60 59 59 59 59 59 61 63 63 63 62 62 59 58 59 59 60 59 59 59 58 58
60 61 60 60 59 59 60 62 63 64 64 64 64 64 61 60 60 60 59 60 61 62
63 64 64 64 63 63 62 62 62 63 64 64 64 64 64 62 60 60 60 61 62 65
61 62 62 62 62 62 62 63 62 62 62 62 60 49 47 55 60 60 61 61 63 64
53 53 53 57 58 59 59 60 59 60 60 59 53 38 40 41 60 61 60 60 59 59
46 46 47 48 48 50 49 46 48 45 49 42 39 37 37 37 50 54 57 50 44 45
42 42 42 41 42 44 42 39 38 37 38 37 36 36 36 40 48 48 40 37 36 37
39 39 38 39 38 38 38 36 35 33 34 34 34 35 36 39 43 37 34 33 33 33
37 37 37 37 38 37 35 34 32 31 32 32 33 33 35 35 35 33 31 30 30 31

GFSNIL_sfc_temp_090.txt.gz
Temp
71 69 68 61 59 57 58 57 58 58 59 60 62 65 66 67 67 67 67 68 69 70
68 67 64 62 60 58 59 58 59 59 60 61 62 63 64 64 62 64 66 68 67 69
67 66 66 64 60 59 59 59 58 57 58 59 59 60 60 59 60 60 61 63 66 68
65 66 64 63 61 59 59 59 58 57 58 58 57 58 57 58 60 61 61 62 64 66
63 66 64 64 63 59 60 60 61 59 59 59 58 57 57 59 60 59 59 66 61 62
63 65 65 66 67 67 64 61 61 59 59 59 58 57 57 58 58 60 63 62 62 62
64 63 63 64 65 66 68 66 66 64 62 61 60 60 59 58 60 60 64 63 61 61
63 64 63 63 63 62 62 65 68 67 66 66 64 64 61 62 60 60 64 66 67 67
66 67 67 65 65 64 62 63 63 64 65 66 66 39 41 56 65 64 64 63 64 65
52 52 52 58 62 63 64 65 62 62 62 50 46 37 38 38 59 62 61 61 60 60
46 46 48 48 48 46 45 44 44 43 42 40 39 36 37 37 53 58 43 41 42 44
42 42 42 41 41 41 39 37 37 38 37 37 35 36 37 42 45 39 36 35 35 37
39 39 38 38 37 37 37 35 35 34 34 34 34 35 37 41 39 33 32 32 32 33
38 37 38 37 37 36 34 34 32 32 32 33 34 34 35 36 35 32 31 30 30 31

GFSNIL_sfc_temp_093.txt.gz
Temp
76 72 74 69 65 62 58 59 61 61 61 61 62 62 63 65 68 68 68 67 68 68
72 71 70 67 63 60 59 58 58 59 60 61 61 62 62 64 64 66 66 66 68 67
69 71 70 65 60 59 58 58 58 58 58 59 60 61 61 63 64 66 66 66 65 65
68 68 67 67 61 59 58 58 58 58 58 58 58 59 60 63 62 63 62 60 60 61
68 67 66 65 61 60 58 58 58 57 57 56 56 57 58 58 58 57 57 58 61 62
67 65 64 64 63 60 59 58 58 58 57 57 56 56 57 56 56 57 58 61 64 66
68 67 67 68 66 62 63 60 60 60 60 59 58 58 57 56 56 57 59 62 65 68
68 68 68 67 67 68 66 64 63 63 62 61 60 59 57 58 57 57 59 62 66 66
68 65 65 66 65 64 65 66 65 65 65 63 49 38 40 51 59 59 61 59 62 67
54 54 54 59 58 57 59 60 56 55 49 44 42 37 39 39 56 58 54 52 51 56
48 47 47 48 46 44 43 43 43 42 43 41 39 37 38 38 52 43 40 39 41 41
42 41 41 39 39 39 38 36 36 36 37 37 36 37 38 44 43 38 35 35 35 36
38 37 36 36 35 35 35 34 34 33 33 34 34 36 37 38 36 32 31 32 32 33
37 36 36 35 35 34 33 33 32 31 31 31 32 34 36 35 34 32 31 30 30 31

GFSNIL_sfc_temp_096.txt.gz
Temp
69 70 69 66 65 62 61 61 62 61 62 62 61 62 62 61 61 62 61 63 64 63
69 69 67 65 64 62 61 61 60 61 61 61 61 61 61 61 61 61 62 62 63 62
66 67 65 64 62 60 59 59 58 58 60 60 60 61 61 61 61 61 61 62 62 61
65 65 65 64 61 59 58 58 57 57 57 59 60 60 60 60 61 60 60 60 60 60
63 64 64 62 60 58 58 58 58 58 57 57 58 60 60 59 60 60 59 58 58 58
62 63 63 62 60 58 58 58 58 57 56 55 55 55 57 57 56 56 56 57 57 57
62 62 62 62 60 59 58 57 57 57 56 56 55 55 55 54 54 55 55 55 56 57
63 63 64 63 61 61 60 59 59 58 58 57 56 56 55 55 55 54 55 56 57 60
63 64 63 62 63 61 60 60 60 59 59 56 45 39 41 52 55 55 55 55 57 59
53 52 51 52 51 49 51 49 47 46 44 41 41 37 39 43 55 55 52 51 52 51
46 45 44 44 42 41 41 41 40 40 40 39 38 37 39 41 44 40 38 39 40 41
41 40 39 37 37 37 36 35 34 35 35 35 35 37 38 41 38 35 33 34 35 35
37 37 35 35 34 35 34 33 32 32 33 34 33 35 36 37 35 32 32 33 33 34
36 35 35 35 35 34 33 33 31 30 30 31 33 34 35 35 33 32 31 30 31 32

GFSNIL_sfc_temp_099.txt.gz
Temp
66 67 67 63 61 61 62 62 63 62 62 63 62 62 62 62 62 61 61 61 61 61
66 66 64 63 62 60 58 60 61 62 62 61 61 62 62 61 61 61 61 61 61 60
64 64 63 62 59 58 57 59 58 60 61 61 61 61 61 60 61 61 61 61 60 61
62 62 62 61 59 58 58 57 57 58 58 59 60 60 60 60 60 59 60 61 60 60
61 62 61 59 57 58 57 57 57 57 57 58 59 60 60 59 59 59 59 59 59 59
61 61 60 59 58 58 57 57 57 57 56 56 57 59 59 60 59 60 59 59 59 59
59 60 60 60 58 58 58 57 57 57 56 56 55 56 58 58 58 58 58 57 58 58
60 61 60 59 58 58 58 58 58 57 56 55 55 53 55 56 56 56 55 55 56 56
59 61 60 59 59 58 58 57 57 57 56 48 45 39 42 51 54 54 54 53 55 56
49 49 49 50 48 48 46 45 44 43 43 41 41 38 40 42 54 54 53 52 53 53
42 42 42 42 40 39 39 38 38 38 38 38 38 38 39 39 41 38 37 37 39 41
37 37 36 35 35 36 35 34 34 35 35 35 35 37 37 38 36 34 33 34 35 36
36 35 34 34 33 33 33 32 32 32 33 34 34 36 36 36 35 32 32 32 33 34
32 34 35 35 34 34 32 32 31 30 31 32 33 34 35 35 33 32 31 31 31 32

GFSNIL_sfc_temp_102.txt.gz
Temp
64 63 63 62 61 61 62 61 63 63 63 63 63 63 63 62 62 62 61 61 61 61
62 63 63 61 62 62 61 61 62 62 61 62 62 62 62 61 61 61 61 61 61 61
62 61 61 61 61 60 59 60 60 61 61 61 61 62 62 61 61 61 61 61 60 60
60 61 60 60 59 58 58 57 58 59 59 60 60 61 60 60 61 60 60 61 60 60
61 61 60 59 58 58 56 57 58 56 57 58 58 60 59 59 60 60 59 59 59 59
60 60 59 58 58 57 57 57 57 57 57 57 57 58 59 60 59 59 59 60 60 60
59 59 59 59 58 57 57 57 57 57 56 56 55 56 58 59 59 59 59 59 60 60
59 59 59 58 58 57 58 57 57 57 56 55 53 49 50 58 58 58 58 58 58 59
49 58 58 58 58 56 54 55 54 54 53 48 46 38 40 50 56 57 56 56 57 55
41 44 46 47 45 44 43 43 41 42 42 41 40 38 40 42 51 47 49 52 53 50
37 38 39 39 38 37 37 36 36 36 37 38 38 37 38 38 40 38 38 39 41 45
35 35 35 34 34 34 34 33 33 34 34 35 35 36 37 38 36 35 34 35 37 38
33 33 33 33 32 33 33 32 32 32 33 34 33 35 36 36 35 32 32 33 34 35
29 31 32 33 33 32 32 31 31 30 31 32 33 33 35 35 33 32 31 31 32 33

GFSNIL_sfc_temp_105.txt.gz
Temp
64 63 63 63 64 63 63 64 64 63 63 64 63 63 63 63 62 62 61 61 61 61
62 61 61 61 62 62 62 60 62 63 62 62 62 62 62 61 61 61 61 61 61 61
61 61 60 60 59 59 59 60 60 60 61 61 61 62 62 62 62 61 61 61 60 61
60 59 59 59 58 59 59 59 60 60 60 60 60 61 61 61 61 60 60 61 60 60
59 59 59 58 58 58 58 58 58 58 58 58 58 59 60 60 61 60 60 60 60 60
58 58 58 58 58 58 57 57 56 57 56 56 57 57 58 58 59 59 59 60 59 59
55 58 58 58 58 57 58 55 56 57 56 56 55 55 56 57 58 59 60 60 60 60
48 57 58 57 57 57 56 57 57 56 56 55 53 48 44 49 57 58 58 58 59 59
42 44 45 52 56 53 51 51 50 49 49 47 46 38 39 43 53 56 58 57 58 59
38 38 38 40 41 42 42 41 40 41 41 40 38 37 39 41 47 46 44 47 54 51
36 35 35 35 35 35 36 36 36 36 37 37 37 36 38 38 40 38 38 38 40 45
33 34 33 32 32 32 33 33 33 34 34 34 34 36 36 37 37 35 34 35 37 38
30 31 31 31 31 32 32 31 32 32 33 34 33 35 36 36 34 32 33 33 33 34
29 29 29 30 31 31 31 31 31 31 31 32 33 33 35 34 33 32 31 31 32 32

GFSNIL_sfc_temp_108.txt.gz
Temp
64 63 63 64 65 65 64 64 64 64 65 65 64 64 63 63 63 63 62 62 61 61
64 63 62 63 64 65 63 62 62 63 64 64 63 63 62 62 62 62 62 62 61 61
62 62 61 61 61 62 62 61 62 62 62 62 62 62 62 61 62 61 61 61 61 61
61 61 61 61 61 61 60 60 60 61 60 60 60 60 60 61 61 60 61 61 61 61
59 60 60 59 59 59 59 59 59 59 59 59 59 59 60 60 60 60 60 61 60 60
52 59 58 58 58 58 58 58 58 58 57 57 57 57 57 57 57 58 59 60 60 60
45 52 58 58 58 58 58 57 56 57 56 56 56 55 54 54 54 56 58 59 60 61
41 43 46 53 56 56 56 56 57 56 56 54 51 45 44 48 50 53 55 58 59 60
38 38 39 40 42 43 43 45 47 47 47 44 45 37 39 40 51 51 48 52 57 59
34 33 36 37 36 36 36 37 37 38 40 38 38 37 39 38 46 44 42 43 45 50
32 32 34 34 33 34 34 33 34 34 35 36 36 36 37 37 40 38 37 37 40 42
31 30 31 32 32 32 32 32 32 32 33 33 34 36 36 37 37 35 34 35 36 37
30 30 29 30 31 32 32 31 32 31 32 32 32 34 36 35 34 32 32 33 33 34
28 29 30 30 30 31 31 31 31 30 31 31 31 32 33 33 32 31 30 30 30 32

GFSNIL_sfc_temp_111.txt.gz
Temp
69 69 71 72 72 70 69 67 67 66 66 66 65 66 66 66 64 64 63 64 64 64
68 67 68 70 71 70 70 67 66 67 65 65 65 65 66 65 63 63 63 63 63 63
67 66 66 68 69 70 69 67 65 65 65 64 64 65 64 64 64 63 63 63 62 62
62 64 65 65 68 69 66 65 65 66 67 64 62 63 63 63 62 61 62 62 63 62
53 61 61 61 61 62 62 64 65 64 62 61 61 62 61 60 61 61 62 63 63 62
46 51 59 59 59 60 60 60 60 61 61 60 60 59 59 60 59 60 60 61 61 63
42 45 48 56 57 58 58 58 58 59 58 58 56 54 54 56 56 57 58 60 61 60
40 41 43 43 45 47 46 46 48 52 50 49 45 42 42 49 53 55 57 57 58 60
38 38 37 38 39 40 40 40 40 40 40 39 41 37 38 40 48 53 52 51 53 56
34 34 33 36 36 35 34 36 34 36 36 35 36 36 37 37 45 44 42 43 44 47
31 32 32 33 32 32 33 32 33 33 34 33 34 35 36 37 39 37 36 37 38 40
30 30 31 31 32 32 32 32 32 33 32 31 32 34 35 36 36 34 33 34 35 36
31 30 30 31 31 32 32 31 32 31 31 32 31 33 33 33 33 31 31 32 33 33
29 29 30 31 32 32 32 32 31 30 31 30 30 31 32 32 29 28 28 28 28 30

GFSNIL_sfc_temp_114.txt.gz
Temp
63 73 78 80 81 79 71 70 69 68 68 68 69 68 68 66 66 66 66 69 70 73
61 71 77 78 78 77 73 70 69 68 67 67 68 67 67 65 65 65 66 68 69 70
56 63 76 71 70 72 74 74 72 69 68 66 66 66 65 65 65 65 65 67 65 66
54 69 74 69 69 73 72 72 70 70 67 65 65 65 65 65 65 64 66 65 64 64
48 52 66 67 69 69 69 69 68 67 64 64 64 65 64 63 63 64 63 63 62 62
44 46 49 58 61 62 61 62 62 62 62 63 63 63 62 61 62 62 62 62 63 66
41 42 44 46 48 49 53 57 55 53 48 47 46 47 51 55 57 59 60 62 65 67
39 40 40 41 42 44 44 45 46 43 42 42 41 40 43 50 55 56 60 63 65 64
35 36 37 36 38 38 39 38 38 38 38 38 40 38 38 43 51 51 49 48 49 52
32 32 33 34 33 33 34 35 35 35 35 35 36 36 38 39 42 40 39 38 39 43
31 31 32 32 32 32 32 31 33 32 32 33 34 35 36 36 37 36 35 35 35 37
31 31 31 31 31 31 31 31 31 31 31 31 32 34 34 35 35 33 32 33 33 34
33 32 31 31 32 32 32 32 31 30 31 31 30 32 32 32 32 30 30 30 31 32
31 31 32 33 32 32 32 32 32 32 32 31 31 31 31 31 29 28 29 27 27 29

GFSNIL_sfc_temp_117.txt.gz
Temp
51 54 61 67 72 71 79 78 76 74 71 70 73 71 70 69 68 67 67 67 68 73
48 51 55 65 72 76 77 80 76 74 69 69 69 70 68 67 66 67 67 67 68 71
46 51 55 64 71 75 78 79 74 72 68 67 67 67 67 66 67 66 66 67 67 67
47 50 54 64 71 75 76 76 75 72 67 67 66 66 66 66 65 65 65 66 65 67
45 47 50 58 71 74 73 74 74 73 71 69 65 65 64 64 64 64 64 64 64 64
41 43 43 45 49 51 65 66 61 63 58 59 61 62 63 63 64 64 64 64 62 65
38 39 40 42 42 45 46 46 46 44 44 44 44 46 51 59 60 60 60 61 61 62
37 38 38 38 38 39 40 40 42 44 43 42 41 42 43 53 56 56 57 54 55 52
34 35 36 35 35 36 36 36 36 38 38 39 40 40 40 46 48 47 45 44 45 49
32 32 32 33 33 32 32 34 33 33 34 33 35 37 37 38 39 38 36 36 39 42
32 32 32 32 32 31 31 31 31 31 32 31 33 34 34 34 34 33 33 33 34 35
32 31 31 31 31 32 32 31 31 31 31 30 31 33 33 33 32 31 30 31 32 33
34 32 32 32 32 32 32 32 32 31 32 32 31 32 32 31 30 28 29 31 31 32
32 31 32 32 33 33 33 33 33 32 31 31 31 32 33 32 30 29 28 27 27 28

GFSNIL_sfc_temp_120.txt.gz
Temp
45 46 48 50 53 57 61 65 69 71 72 73 72 72 70 70 68 68 67 67 67 67
43 44 46 48 52 54 58 65 67 69 70 71 70 70 70 68 67 67 67 66 67 67
42 44 46 48 49 52 55 61 67 66 69 68 68 67 66 67 66 66 65 66 66 66
43 45 47 49 51 52 55 59 65 66 63 61 65 66 66 66 65 65 65 65 65 65
41 42 43 44 47 53 57 61 65 67 66 64 66 66 66 65 64 64 63 64 64 64
38 38 38 40 42 44 45 46 47 47 49 50 52 63 64 65 64 63 63 64 63 64
35 36 37 39 38 39 41 39 42 45 44 45 45 47 50 63 62 62 62 62 59 56
33 35 36 36 37 37 36 35 37 38 40 41 42 44 47 48 48 50 49 50 50 45
32 33 34 34 34 34 34 34 36 35 35 35 38 39 41 40 39 39 39 39 43 44
32 32 32 33 33 32 32 33 33 33 34 34 34 34 36 38 37 37 35 34 35 37
31 30 31 32 32 32 32 31 31 30 31 32 32 34 33 33 32 31 31 32 32 33
30 30 30 30 31 31 32 31 30 30 29 30 31 33 33 32 30 29 28 30 31 31
31 28 28 29 29 32 32 31 31 29 29 30 29 32 33 32 31 29 29 29 30 31
29 29 27 27 28 29 29 29 29 29 29 28 29 30 33 33 30 30 29 29 29 30

GFSNIL_sfc_temp_126.txt.gz
Temp
38 38 39 40 41 42 44 45 47 47 48 50 53 56 59 63 65 66 65 64 60 59
38 40 40 42 43 43 45 47 47 48 48 50 51 54 57 61 62 61 60 61 60 59
36 38 40 42 43 44 46 47 48 48 49 50 50 51 55 58 62 61 59 60 59 60
36 37 39 40 40 41 43 44 47 50 50 50 52 52 54 58 61 61 60 60 60 61
35 35 36 36 38 39 39 40 41 42 43 45 46 49 50 53 59 60 59 58 62 63
33 34 33 34 35 37 37 38 38 39 39 39 40 45 48 50 54 55 55 55 57 59
30 32 32 33 34 34 35 35 36 36 37 37 38 39 41 42 44 43 43 43 42 43
28 31 32 32 31 31 31 32 34 34 35 36 36 36 37 38 37 38 38 39 40 40
27 28 29 30 30 29 29 29 29 31 32 32 33 35 35 36 35 35 34 34 36 38
25 25 27 27 28 27 26 26 27 27 29 31 32 34 34 34 32 32 32 32 33 33
23 22 24 25 24 25 24 24 24 26 27 29 31 33 33 32 31 31 31 31 31 31
24 22 21 21 22 23 23 22 22 24 26 26 30 34 34 32 31 30 30 30 31 31
26 23 21 20 21 22 22 22 23 22 24 29 27 33 34 31 30 28 28 29 30 31
24 23 23 23 22 22 22 22 22 22 23 24 28 29 32 32 28 27 27 26 26 28